Idaho Falls, ID

5:25 AM MDT on March 30, 2017 (GMT -0600)
Fanning

Weather History for KIDA - March, 2014

Change the Weather History Date:

Sunday, March 2, 2014

  Actual Average Record
Temperature  
Mean Temperature 28 °F 30 °F  
Max Temperature 39 °F 40 °F 60 °F (1992)
Min Temperature 16 °F 20 °F -16 °F (1960)
Degree Days  
Heating Degree Days 37 35  
Month to date heating degree days 73 70  
Since 1 July heating degree days 5590 5872  
Cooling Degree Days 0 0  
Month to date cooling degree days 0 0  
Year to date cooling degree days 0 0  
Moisture  
Dew Point 26 °F    
Average Humidity 84    
Maximum Humidity 92    
Minimum Humidity 75    
Precipitation  
Precipitation 0.07 in 0.03 in 0.65 in (1985)
Month to date precipitation 0.22 0.06  
Year to date precipitation 1.11 1.41  
Sea Level Pressure  
Sea Level Pressure 30.01 in    
Wind  
Wind Speed 7 mph (West)    
Max Wind Speed 17 mph    
Max Gust Speed 22 mph    
Visibility 9 miles    
Events Rain , Snow    
T = Trace of Precipitation, MM = Missing Value Source: NWS Daily Summary

Daily Weather History Graph

Daily Weather History Graph

Search for Another Location

Airport or City:

Trip Planner

Search our weather history database for the weather conditions in past years. The results will help you decide how hot, cold, wet, or windy it might be!

Date:

Astronomy

Mar. 02, 2014 Rise Set
Actual Time 7:02 AM MST 6:18 PM MST
Civil Twilight 6:34 AM MST 6:47 PM MST
Nautical Twilight 6:01 AM MST 7:20 PM MST
Astronomical Twilight 5:27 AM MST 7:53 PM MST
Moon 7:32 AM MST (3/2) 8:23 PM MST (3/2)
Length of Visible Light 12h 13m
Length of Day
11h 15m
Waxing Crescent, 3% of the Moon is Illuminated
Mar 2
Waxing Crescent
Mar 8
First Quarter
Mar 16
Full
Mar 23
Last Quarter
Mar 30
New

Hourly Weather History & Observations

Time (MST) Temp. Windchill Dew Point Humidity Pressure Visibility Wind Dir Wind Speed Gust Speed Precip Events Conditions
12:48 AM 21.2 °F 13.6 °F 17.6 °F 86% 29.87 in 8.0 mi East 5.8 mph - 0.00 in   Overcast
12:53 AM 21.0 °F 12.4 °F 18.0 °F 88% 29.99 in 10.0 mi ESE 6.9 mph - 0.00 in   Overcast
1:53 AM 19.0 °F - 16.0 °F 88% 29.99 in 10.0 mi Calm Calm - N/A   Clear
2:22 AM 19.0 °F 9.0 °F 17.1 °F 92% 29.89 in 10.0 mi NW 8.1 mph - N/A   Scattered Clouds
2:30 AM 19.9 °F 7.9 °F 18.0 °F 92% 29.89 in 10.0 mi NNW 11.5 mph - N/A   Mostly Cloudy
2:53 AM 19.9 °F 7.9 °F 17.1 °F 89% 30.03 in 10.0 mi NNW 11.5 mph - N/A   Overcast
3:53 AM 19.9 °F 10.1 °F 15.1 °F 81% 30.04 in 10.0 mi ENE 8.1 mph - N/A   Overcast
4:53 AM 21.0 °F 14.6 °F 17.1 °F 85% 30.04 in 10.0 mi NNE 4.6 mph - N/A   Overcast
5:53 AM 21.9 °F 15.7 °F 19.0 °F 89% 30.04 in 10.0 mi North 4.6 mph - N/A   Overcast
6:53 AM 21.9 °F 14.5 °F 19.0 °F 89% 30.05 in 10.0 mi NNW 5.8 mph - N/A   Overcast
7:53 AM 23.0 °F 17.0 °F 19.9 °F 88% 30.06 in 10.0 mi NE 4.6 mph - N/A   Overcast
8:53 AM 24.1 °F 17.0 °F 19.9 °F 84% 30.07 in 10.0 mi NNE 5.8 mph - N/A   Overcast
9:01 AM 24.1 °F 16.0 °F 21.0 °F 88% 29.96 in 5.0 mi North 6.9 mph - 0.00 in Snow Light Snow
9:53 AM 25.0 °F 16.3 °F 21.0 °F 85% 30.09 in 5.0 mi North 8.1 mph - 0.00 in   Overcast
10:53 AM 26.1 °F 17.6 °F 21.9 °F 84% 30.10 in 10.0 mi North 8.1 mph - 0.00 in   Overcast
11:36 AM 28.0 °F 22.8 °F 23.0 °F 81% 29.99 in 10.0 mi North 4.6 mph - N/A   Overcast
11:53 AM 28.9 °F 21.9 °F 24.1 °F 82% 30.10 in 10.0 mi North 6.9 mph - N/A   Overcast
12:53 PM 30.0 °F 25.2 °F 26.1 °F 85% 30.09 in 10.0 mi NNW 4.6 mph - N/A   Mostly Cloudy
1:53 PM 33.1 °F 28.7 °F 27.0 °F 78% 30.05 in 10.0 mi NE 4.6 mph - N/A   Mostly Cloudy
2:53 PM 36.0 °F 33.3 °F 30.0 °F 79% 30.03 in 10.0 mi North 3.5 mph - N/A   Mostly Cloudy
3:53 PM 37.0 °F 33.3 °F 30.9 °F 79% 30.04 in 10.0 mi SSW 4.6 mph - N/A   Partly Cloudy
4:53 PM 37.0 °F 32.4 °F 33.1 °F 86% 30.02 in 10.0 mi South 5.8 mph - 0.00 in   Mostly Cloudy
5:28 PM 37.9 °F 32.7 °F 34.0 °F 86% 29.95 in 5.0 mi South 6.9 mph - 0.02 in Rain Rain
5:35 PM 37.0 °F 32.4 °F 35.1 °F 93% 29.95 in 5.0 mi SSW 5.8 mph - 0.02 in Rain Light Rain
5:53 PM 37.0 °F 29.3 °F 34.0 °F 89% 30.04 in 10.0 mi South 11.5 mph - 0.02 in   Overcast
6:53 PM 37.0 °F 31.0 °F 35.1 °F 93% 30.04 in 10.0 mi South 8.1 mph - N/A   Overcast
7:53 PM 37.9 °F 33.5 °F 34.0 °F 86% 30.03 in 10.0 mi SW 5.8 mph - 0.00 in   Overcast
8:53 PM 37.0 °F 31.0 °F 35.1 °F 93% 30.06 in 9.0 mi SW 8.1 mph - 0.01 in Rain Light Rain
9:02 PM 37.0 °F 29.3 °F 35.1 °F 93% 29.98 in 6.0 mi SSW 11.5 mph - 0.02 in Rain Rain
9:22 PM 37.9 °F 30.9 °F 35.1 °F 89% 29.97 in 10.0 mi South 10.4 mph - 0.02 in   Overcast
9:53 PM 37.9 °F 30.0 °F 35.1 °F 89% 30.04 in 10.0 mi South 12.7 mph - 0.02 in   Overcast
10:41 PM 37.9 °F 29.2 °F 35.1 °F 89% 29.97 in 10.0 mi SSW 15.0 mph - 0.02 in Rain Light Rain
10:53 PM 37.9 °F 28.9 °F 35.1 °F 89% 30.04 in 10.0 mi SSW 16.1 mph - 0.02 in Rain Light Rain
11:10 PM 39.0 °F 30.6 °F 35.1 °F 86% 29.96 in 10.0 mi SSW 15.0 mph - 0.00 in   Overcast
11:53 PM 37.9 °F 29.2 °F 35.1 °F 89% 30.01 in 10.0 mi South 15.0 mph - 0.00 in   Mostly Cloudy